When you browse on this site, cookies collect data to enhance your experience and personalize the content and advertising you see.
Visit our Privacy Policy to learn more. By continuing to use the site, you agree to this use of cookies and data.
  • în România
  • Lista ţărilor
  • Pe 7 zile
  • Temperatura apei
  • Hartă satelitară
  • Meteo pe hartă
  • Widget-uri
  • user-avatar
    Intrare

    Meteo pe oră la Dęblin

    Astăzi, 15 Decembrie, Sâmbătă

    Timp Temperatura Precipitaţii Vânt Presiune Umiditate
    00:00 -2°C° 0 mm 2 m/s 760 mmHg 93%
    01:00 -2°C° 0 mm 2 m/s 760 mmHg 93%
    02:00 -2°C° 0 mm 2 m/s 760 mmHg 93%
    03:00 -2°C° 0 mm 2 m/s 760 mmHg 93%
    04:00 -3°C° 0 mm 2 m/s 760 mmHg 92%
    05:00 -3°C° 0 mm 2 m/s 760 mmHg 92%
    06:00 -3°C° 0 mm 2 m/s 760 mmHg 92%
    07:00 -3°C° 0 mm 2 m/s 760 mmHg 92%
    08:00 -2°C° 0 mm 3 m/s 761 mmHg 88%
    09:00 -2°C° 0 mm 3 m/s 761 mmHg 84%
    10:00 -2°C° 0 mm 4 m/s 761 mmHg 81%
    11:00 -2°C° 0 mm 4 m/s 761 mmHg 78%
    12:00 -2°C° 0 mm 4 m/s 761 mmHg 76%
    13:00 -1°C° 0 mm 4 m/s 760 mmHg 73%
    14:00 -2°C° 0 mm 4 m/s 760 mmHg 74%
    15:00 -2°C° 0 mm 5 m/s 760 mmHg 75%
    16:00 -2°C° 0 mm 5 m/s 760 mmHg 77%
    17:00 -2°C° 0 mm 5 m/s 760 mmHg 77%
    18:00 -4°C° 0 mm 5 m/s 760 mmHg 77%
    19:00 -4°C° 0 mm 5 m/s 759 mmHg 77%
    20:00 -4°C° 0.1 mm 5 m/s 759 mmHg 78%
    21:00 -4°C° 0.1 mm 6 m/s 759 mmHg 78%
    22:00 -4°C° 0.1 mm 6 m/s 759 mmHg 79%
    23:00 -4°C° 0.2 mm 6 m/s 758 mmHg 79%

    Mâine, 16 Decembrie, Duminică

    Timp Temperatura Precipitaţii Vânt Presiune Umiditate
    00:00 -4°C° 0.2 mm 6 m/s 758 mmHg 80%
    01:00 -4°C° 0.2 mm 6 m/s 757 mmHg 80%
    02:00 -4°C° 0.2 mm 6 m/s 757 mmHg 82%
    03:00 -4°C° 0.2 mm 6 m/s 756 mmHg 83%
    04:00 -4°C° 0.2 mm 6 m/s 756 mmHg 84%
    05:00 -4°C° 0.4 mm 6 m/s 755 mmHg 85%
    06:00 -4°C° 0.4 mm 6 m/s 755 mmHg 87%
    07:00 -4°C° 0.4 mm 6 m/s 755 mmHg 88%
    08:00 -4°C° 0.4 mm 6 m/s 755 mmHg 88%
    09:00 -4°C° 0.4 mm 6 m/s 755 mmHg 88%
    10:00 -4°C° 0.4 mm 5 m/s 755 mmHg 88%
    11:00 -4°C° 0.4 mm 5 m/s 754 mmHg 89%
    12:00 -2°C° 0.4 mm 5 m/s 754 mmHg 90%
    13:00 -2°C° 0.4 mm 5 m/s 754 mmHg 90%
    14:00 -2°C° 0.4 mm 4 m/s 754 mmHg 91%
    15:00 -2°C° 0.4 mm 4 m/s 754 mmHg 92%
    16:00 -2°C° 0.4 mm 4 m/s 754 mmHg 93%
    17:00 -1°C° 0.1 mm 3 m/s 754 mmHg 93%
    18:00 -1°C° 0.1 mm 3 m/s 754 mmHg 94%
    19:00 -1°C° 0.1 mm 3 m/s 754 mmHg 94%
    20:00 -1°C° 0 mm 3 m/s 754 mmHg 94%
    21:00 -2°C° 0 mm 2 m/s 754 mmHg 94%
    22:00 -2°C° 0 mm 2 m/s 754 mmHg 95%
    23:00 -2°C° 0 mm 2 m/s 754 mmHg 95%

    Poimâine, 17 Decembrie, Luni

    Timp Temperatura Precipitaţii Vânt Presiune Umiditate
    00:00 -3°C° 0 mm 2 m/s 755 mmHg 94%
    01:00 -3°C° 0 mm 2 m/s 755 mmHg 94%
    02:00 -3°C° 0 mm 2 m/s 755 mmHg 94%
    03:00 -3°C° 0 mm 2 m/s 754 mmHg 94%
    04:00 -4°C° 0 mm 2 m/s 754 mmHg 94%
    05:00 -4°C° 0 mm 2 m/s 754 mmHg 94%
    06:00 -4°C° 0 mm 2 m/s 755 mmHg 94%
    07:00 -4°C° 0 mm 2 m/s 755 mmHg 93%
    08:00 -3°C° 0 mm 2 m/s 755 mmHg 92%
    09:00 -3°C° 0 mm 2 m/s 755 mmHg 91%
    10:00 -2°C° 0 mm 2 m/s 756 mmHg 90%
    11:00 -2°C° 0 mm 2 m/s 756 mmHg 89%
    12:00 +1°C° 0 mm 1 m/s 756 mmHg 88%
    13:00 +1°C° 0 mm 1 m/s 756 mmHg 88%
    14:00 0°C° 0 mm 1 m/s 756 mmHg 89%
    15:00 0°C° 0 mm 1 m/s 757 mmHg 90%
    16:00 -1°C° 0 mm 1 m/s 757 mmHg 91%
    17:00 -1°C° 0 mm 1 m/s 757 mmHg 91%
    18:00 -1°C° 0 mm 1 m/s 758 mmHg 91%
    19:00 -4°C° 0 mm 2 m/s 758 mmHg 91%
    20:00 -3°C° 0 mm 2 m/s 758 mmHg 91%
    21:00 -3°C° 0 mm 2 m/s 759 mmHg 91%
    22:00 -3°C° 0 mm 2 m/s 759 mmHg 92%
    23:00 -3°C° 0 mm 2 m/s 759 mmHg 92%

    18 Decembrie, Marţi

    Timp Temperatura Precipitaţii Vânt Presiune Umiditate
    00:00 -3°C° 0 mm 2 m/s 760 mmHg 93%
    01:00 -2°C° 0 mm 2 m/s 760 mmHg 94%
    02:00 -2°C° 0 mm 2 m/s 760 mmHg 94%
    03:00 -2°C° 0 mm 2 m/s 760 mmHg 94%
    04:00 0°C° 0 mm 1 m/s 761 mmHg 95%
    05:00 0°C° 0 mm 1 m/s 761 mmHg 95%
    06:00 -1°C° 0 mm 1 m/s 761 mmHg 95%
    07:00 -2°C° 0 mm 0 m/s 762 mmHg 95%
    08:00 -1°C° 0 mm 0 m/s 762 mmHg 94%
    09:00 0°C° 0 mm 1 m/s 762 mmHg 93%
    10:00 +1°C° 0 mm 1 m/s 762 mmHg 93%
    11:00 0°C° 0 mm 0 m/s 762 mmHg 93%
    12:00 0°C° 0 mm 0 m/s 762 mmHg 93%
    13:00 0°C° 0 mm 0 m/s 762 mmHg 93%
    14:00 0°C° 0 mm 0 m/s 762 mmHg 93%
    15:00 -1°C° 0 mm 0 m/s 762 mmHg 94%
    16:00 -2°C° 0 mm 0 m/s 762 mmHg 94%
    17:00 -1°C° 0 mm 1 m/s 763 mmHg 94%
    18:00 -1°C° 0 mm 1 m/s 763 mmHg 94%
    19:00 -1°C° 0 mm 1 m/s 763 mmHg 94%
    20:00 -2°C° 0 mm 1 m/s 763 mmHg 94%
    21:00 -2°C° 0 mm 1 m/s 763 mmHg 95%
    22:00 -4°C° 0 mm 2 m/s 763 mmHg 95%
    23:00 -2°C° 0 mm 1 m/s 763 mmHg 95%

    19 Decembrie, Miercuri

    Timp Temperatura Precipitaţii Vânt Presiune Umiditate
    00:00 -2°C° 0 mm 1 m/s 763 mmHg 95%
    01:00 -2°C° 0 mm 1 m/s 763 mmHg 94%
    02:00 -5°C° 0 mm 2 m/s 763 mmHg 94%
    03:00 -5°C° 0 mm 2 m/s 763 mmHg 94%
    04:00 -5°C° 0 mm 2 m/s 763 mmHg 94%
    05:00 -5°C° 0 mm 2 m/s 763 mmHg 94%
    06:00 -5°C° 0 mm 2 m/s 763 mmHg 94%
    07:00 -5°C° 0 mm 2 m/s 763 mmHg 93%
    08:00 -4°C° 0 mm 2 m/s 763 mmHg 92%
    09:00 -4°C° 0 mm 3 m/s 763 mmHg 91%
    10:00 -4°C° 0 mm 3 m/s 763 mmHg 90%
    11:00 -2°C° 0 mm 3 m/s 763 mmHg 89%
    12:00 -2°C° 0 mm 3 m/s 762 mmHg 88%
    13:00 -3°C° 0 mm 4 m/s 762 mmHg 87%
    14:00 -4°C° 0 mm 3 m/s 762 mmHg 89%
    15:00 -4°C° 0 mm 3 m/s 762 mmHg 91%
    16:00 -5°C° 0 mm 3 m/s 762 mmHg 92%
    17:00 -5°C° 0 mm 4 m/s 762 mmHg 91%
    18:00 -5°C° 0 mm 4 m/s 762 mmHg 91%
    19:00 -5°C° 0 mm 4 m/s 762 mmHg 90%
    20:00 -5°C° 0 mm 4 m/s 762 mmHg 90%
    21:00 -4°C° 0 mm 4 m/s 762 mmHg 90%
    22:00 -4°C° 0 mm 4 m/s 761 mmHg 89%
    23:00 -5°C° 0 mm 4 m/s 761 mmHg 90%

    20 Decembrie, Joi

    Timp Temperatura Precipitaţii Vânt Presiune Umiditate
    00:00 -7°C° 0 mm 4 m/s 761 mmHg 90%
    01:00 -7°C° 0 mm 4 m/s 761 mmHg 91%
    02:00 -8°C° 0 mm 4 m/s 761 mmHg 90%
    03:00 -8°C° 0 mm 4 m/s 760 mmHg 89%
    04:00 -8°C° 0 mm 4 m/s 760 mmHg 88%
    05:00 -8°C° 0 mm 4 m/s 760 mmHg 88%
    06:00 -8°C° 0 mm 4 m/s 760 mmHg 87%
    07:00 -8°C° 0 mm 4 m/s 760 mmHg 86%
    08:00 -8°C° 0 mm 5 m/s 760 mmHg 85%
    09:00 -7°C° 0 mm 5 m/s 760 mmHg 84%
    10:00 -6°C° 0 mm 5 m/s 760 mmHg 82%
    11:00 -6°C° 0 mm 5 m/s 760 mmHg 82%
    12:00 -5°C° 0 mm 5 m/s 759 mmHg 82%
    13:00 -5°C° 0 mm 5 m/s 759 mmHg 81%
    14:00 -5°C° 0 mm 5 m/s 759 mmHg 82%
    15:00 -4°C° 0 mm 4 m/s 759 mmHg 84%
    16:00 -5°C° 0 mm 4 m/s 759 mmHg 85%
    17:00 -5°C° 0 mm 4 m/s 759 mmHg 85%
    18:00 -5°C° 0 mm 4 m/s 759 mmHg 86%
    19:00 -5°C° 0 mm 4 m/s 759 mmHg 86%
    20:00 -5°C° 0 mm 3 m/s 759 mmHg 87%
    21:00 -5°C° 0 mm 3 m/s 759 mmHg 88%
    22:00 -6°C° 0 mm 3 m/s 759 mmHg 88%
    23:00 -5°C° 0 mm 3 m/s 759 mmHg 89%
    Arată mai mult